Regional Weather Roundup
Issued by NWS

Home | Current Version | Previous Version | Text Only | Print | Product List | Glossary Off
Versions: 1 2 3 4 5 6 7 8 9 10 11 12 13 14 15 16 17 18 19 20 21 22 23 24 25 26 27 28 29 30 31 32 33 34 35 36 37 38 39 40 41 42 43 44 45 46 47 48 49 50

373
ASUS43 KLOT 281803
RWRIL

ILLINOIS REGIONAL WEATHER ROUNDUP
NATIONAL WEATHER SERVICE CHICAGO/ROMEOVILLE IL
100 PM CDT WED SEP 28 2016

NOTE: "FAIR" INDICATES FEW OR NO CLOUDS BELOW 12,000 FEET WITH NO
SIGNIFICANT WEATHER AND/OR OBSTRUCTIONS TO VISIBILITY.

* THESE STATIONS ARE NOT UNDER NWS QUALITY CONTROL. THEY ALSO MAY NOT
  REPORT WEATHER SUCH AS PRECIPITATION OR FOG.

ILZ001-002-007-009-015-016-024-281900-
NORTHWEST ILLINOIS

CITY           SKY/WX    TMP DP  RH WIND       PRES   REMARKS
MOLINE         CLOUDY    60  49  66 N10       30.01R
6HR MIN TEMP:  51; 6HR MAX TEMP:  60;

STERLING*      CLOUDY    59  48  67 N14       29.99R
SAVANNA*       LGT RAIN  57  52  83 N10       30.00R
$$

ILZ003-004-008-010-011-017-018-281900-
NORTH CENTRAL ILLINOIS

CITY           SKY/WX    TMP DP  RH WIND       PRES   REMARKS
ROCKFORD       CLOUDY    58  49  72 N14       30.00R
6HR MIN TEMP:  50; 6HR MAX TEMP:  59; 6HR PCP: TRACE;

FREEPORT*      CLOUDY    58  49  71 N10G17    30.01R
ROCHELLE*      CLOUDY    57  49  75 N17       29.98R
$$

ILZ005-006-012>014-019>023-281900-
NORTHEAST ILLINOIS

CITY           SKY/WX    TMP DP  RH WIND       PRES   REMARKS
CHICAGO-OHARE  CLOUDY    57  48  72 N15       29.93R
6HR MIN TEMP:  51; 6HR MAX TEMP:  60; 6HR PCP: TRACE;

CHICAGO-MIDWAY CLOUDY    60  50  69 N16       29.92R
6HR MIN TEMP:  52; 6HR MAX TEMP:  60; 6HR PCP:  0.01;

AURORA         CLOUDY    60  48  64 N15       29.95R
6HR MIN TEMP:  50; 6HR MAX TEMP:  60; 6HR PCP:  0.03;

LANSING*       RAIN      54  53  99 NW6       29.91R
JOLIET*        CLOUDY    62  48  62 N12G18    29.92R
WAUKEGAN       LGT RAIN  55  51  86 N6        29.95R
6HR MIN TEMP:  49; 6HR MAX TEMP:  58; 6HR PCP:  0.06;

DUPAGE AIRPORT CLOUDY    59  46  62 N15       29.94R
6HR MIN TEMP:  50; 6HR MAX TEMP:  60; 6HR PCP: TRACE;

KANKAKEE*      CLOUDY    61  47  58 N12G17    29.91R
WHEELING       CLOUDY    55  50  83 N9        29.95R
6HR MIN TEMP:  50; 6HR MAX TEMP:  58; 6HR PCP:  0.02;

MORRIS*        CLOUDY    59  46  61 N6        29.93R
ROMEOVILLE*    CLOUDY    61  50  68 N10G16    29.92R
NORTHERLY ISL    N/A     57  51  80 N12         N/A
$$

LMZ740>746-281900-
SOUTHERN LAKE MICHIGAN

STATION/POSITION SKY/WX   TEMP    WIND        PRES    VSBY  WAVE
                          AIR SEA DIR/SP/G                  HT/PER
                          (F)     (DEG/KT/KT) (MB)    (MI)  (FT/S)
SOUTHERN BUOY              60 69   40/ 14/ 16 1012.5          1/ 3
WILMETTE HARBOR            54 59   10/ 19/ 25   N/A           4/ 4
HARRISON CRIB              56     330/ 25/ 27   N/A
BURNHAM HARBOR             57     310/ 13/ 15   N/A
CALUMET HARBOR             56     320/  8/ 16 1012.0R
BURNS HARBOR               59      40/ 18/ 22 1012.2R
MICHIGAN CITY              57      10/ 17/ 20   N/A
MICHIGAN CITY 6N           59 66   50/ 14/ 19   N/A           5/ 4
ST. JOSEPH                 57 66   40/ 14/ 17 1012.3R         3/ 4
$$

ILZ025>027-034>036-040-047-049-050-058-095>099-281900-
WEST-CENTRAL ILLINOIS

CITY           SKY/WX    TMP DP  RH WIND       PRES   REMARKS
QUINCY         PTSUNNY   61  45  55 N16       30.03R
GALESBURG*     CLOUDY    57  48  70 NW14G20   30.01R
MACOMB*        CLOUDY    58  46  64 NW14G22   30.04R
JACKSONVILLE*  CLOUDY    60  44  55 NW18G24   30.00R
PITTSFIELD*    PTSUNNY   64  46  53 NW14G20   30.03R
$$

ILZ028>032-037-038-041>044-048-051>054-059>061-281900-
CENTRAL ILLINOIS

CITY           SKY/WX    TMP DP  RH WIND       PRES   REMARKS
PONTIAC        CLOUDY    60  49  67 NW15G21   29.94R
BLOOMINGTON    PTSUNNY   58  47  66 NW16      29.95R
DECATUR        CLOUDY    59  45  59 N20       29.95R
PEORIA         CLOUDY    57  47  69 NW8       29.99R
6HR MIN TEMP:  51; 6HR MAX TEMP:  57; 6HR PCP: TRACE;

LACON*         CLOUDY    59  46  61 NW14G20   29.97R
LINCOLN*       CLOUDY    58  47  66 N13G18    29.97R
SPRINGFIELD    CLOUDY    61  46  57 N16G23    29.98R
6HR MIN TEMP:  55; 6HR MAX TEMP:  62;

TAYLORVILLE    CLOUDY    60  44  55 N18G24    29.96R
6HR MIN TEMP:  54; 6HR MAX TEMP:  62;

$$

ILZ033-039-045-046-055>057-062-063-281900-
EAST-CENTRAL ILLINOIS

CITY           SKY/WX    TMP DP  RH WIND       PRES   REMARKS
CHAMPAIGN      CLOUDY    59  45  59 N17G23    29.92R
RANTOUL*       CLOUDY    61  46  58 NW16      29.91R
MATTOON        LGT RAIN  62  44  51 NW18G28   29.91R
PARIS*         CLOUDY    64  50  59 N5        29.89R
$$

ILZ079-100>102-281900-
SOUTHWEST ILLINOIS

CITY           SKY/WX    TMP DP  RH WIND       PRES   REMARKS
BELLEVILLE     SUNNY     67  47  48 N9G23     29.94R
CAHOKIA*       PTSUNNY   67  44  43 N18       29.97R
SPARTA*        SUNNY     66  47  49 N17       29.94R
$$

ILZ064>066-069>071-074>076-080>082-084>086-088>090-092>094-281900-
SOUTH-CENTRAL ILLINOIS

CITY           SKY/WX    TMP DP  RH WIND       PRES   REMARKS
CARBONDALE     MOSUNNY   69  49  48 N15       29.91R
6HR MIN TEMP:  56; 6HR MAX TEMP:  70;

EFFINGHAM*     PTSUNNY   64  48  56 NW15G23   29.93R
MARION         MOSUNNY   68  48  49 NW12      29.91R
MT. VERNON     MOSUNNY   66  46  48 NW8       29.92R
CENTRALIA*     MOSUNNY   67  48  50 NW21      29.92R
SALEM*         MOSUNNY   68  45  43 N17       29.93R
METROPOLIS*    CLOUDY    71  55  56 W9        29.90R
$$

ILZ067-068-072-073-078-083-087-091-281900-
SOUTHEAST ILLINOIS

CITY           SKY/WX    TMP DP  RH WIND       PRES   REMARKS
LAWRENCEVILLE  MOSUNNY   69  50  50 N18G25    29.86R
FLORA*         MOSUNNY   69  47  45 NW13      29.90R
FAIRFIELD*     SUNNY     68  48  49 NW7       29.89R
HARRISBURG*    MOSUNNY   68  51  54 N12       29.89R
ROBINSON*      CLOUDY    67  51  56 NW15      29.87R
CARMI*         MOSUNNY   68  51  55 NW13      29.87R
$$

ABBREVIATIONS USED IN REMARKS
   TC - TEMPERATURE IN CELSIUS
  WCI - WIND CHILL INDEX
   HX - HEAT INDEX
  VSB - VISIBILITY
$$





USA.gov is the U.S. government's official web portal to all federal, state and local government web resources and services.